Change the Weather History Date:

Thursday, March 13, 2014

  Actual Average Record
Temperature  
Mean Temperature 49 °F 56 °F  
Max Temperature 68 °F 68 °F 95 °F (1916)
Min Temperature 30 °F 43 °F 20 °F (1951)
Degree Days  
Heating Degree Days 16 10  
Month to date heating degree days 152  
Since 1 July heating degree days 2285  
Cooling Degree Days 0 1  
Month to date cooling degree days 8  
Year to date cooling degree days 13  
Moisture  
Dew Point 18 °F    
Average Humidity 30    
Maximum Humidity 54    
Minimum Humidity 7    
Precipitation  
Precipitation 0.00 in 0.06 in 0.73 in (1924)
Month to date precipitation 0.74  
Year to date precipitation 3.12  
Sea Level Pressure  
Sea Level Pressure 30.18 in    
Wind  
Wind Speed 8 mph (South)    
Max Wind Speed 16 mph    
Max Gust Speed 24 mph    
Visibility 10 miles    
Events      
T = Trace of Precipitation, MM = Missing Value Source: NWS Daily Summary

Daily Weather History Graph

Daily Weather History Graph

Search for Another Location

Airport or City:

Trip Planner

Search our weather history database for the weather conditions in past years. The results will help you decide how hot, cold, wet, or windy it might be!

Date:

Astronomy

Mar. 13, 2014 Rise Set
Actual Time 7:51 AM CDT 7:45 PM CDT
Civil Twilight 7:26 AM CDT 8:09 PM CDT
Nautical Twilight 6:58 AM CDT 8:38 PM CDT
Astronomical Twilight 6:29 AM CDT 9:06 PM CDT
Moon 5:19 PM CDT (3/13) 5:51 AM CDT (3/13)
Length of Visible Light 12h 42m
Length of Day
11h 53m
Waxing Gibbous, 91% of the Moon is Illuminated
Mar 13
Waxing Gibbous
Mar 16
Full
Mar 23
Last Quarter
Mar 30
New
Apr 7
First Quarter

Hourly Weather History & Observations

Time (CDT) Temp. Windchill Dew Point Humidity Pressure Visibility Wind Dir Wind Speed Gust Speed Precip Events Conditions
12:52 AM 37.0 °F 33.3 °F 18.0 °F 46% 30.30 in 10.0 mi SSW 4.6 mph - N/A   Clear
1:52 AM 34.0 °F 28.0 °F 18.0 °F 52% 30.29 in 10.0 mi SSW 6.9 mph - N/A   Clear
2:52 AM 34.0 °F 28.8 °F 18.0 °F 52% 30.28 in 10.0 mi South 5.8 mph - N/A   Clear
3:52 AM 34.0 °F 28.8 °F 17.1 °F 50% 30.27 in 10.0 mi South 5.8 mph - N/A   Clear
4:52 AM 30.9 °F 23.5 °F 15.1 °F 52% 30.27 in 10.0 mi South 8.1 mph - N/A   Clear
5:52 AM 33.1 °F 26.9 °F 17.1 °F 52% 30.27 in 10.0 mi South 6.9 mph - N/A   Clear
6:52 AM 33.1 °F 26.9 °F 18.0 °F 54% 30.28 in 10.0 mi South 6.9 mph - N/A   Clear
7:52 AM 35.1 °F 28.6 °F 18.0 °F 50% 30.29 in 9.0 mi South 8.1 mph - N/A   Clear
8:52 AM 39.9 °F 36.7 °F 19.9 °F 45% 30.30 in 10.0 mi South 4.6 mph - N/A   Clear
9:52 AM 51.1 °F - 19.9 °F 29% 30.30 in 10.0 mi SSW 11.5 mph - N/A   Clear
10:52 AM 54.0 °F - 19.9 °F 26% 30.30 in 10.0 mi SSW 16.1 mph - N/A   Clear
11:52 AM 57.9 °F - 19.9 °F 23% 30.28 in 10.0 mi SSW 11.5 mph 20.7 mph N/A   Clear
12:52 PM 61.0 °F - 18.0 °F 19% 30.25 in 10.0 mi SW 9.2 mph - N/A   Clear
1:52 PM 63.0 °F - 17.1 °F 17% 30.21 in 10.0 mi South 9.2 mph - N/A   Clear
2:52 PM 64.9 °F - 17.1 °F 16% 30.15 in 10.0 mi SSW 10.4 mph 20.7 mph N/A   Clear
3:52 PM 66.0 °F - 16.0 °F 15% 30.10 in 10.0 mi South 11.5 mph - N/A   Clear
4:52 PM 66.9 °F - 17.1 °F 15% 30.08 in 10.0 mi South 10.4 mph 24.2 mph N/A   Clear
5:52 PM 68.0 °F - 16.0 °F 14% 30.04 in 10.0 mi South 13.8 mph 24.2 mph N/A   Clear
6:52 PM 66.0 °F - 17.1 °F 15% 30.02 in 10.0 mi South 12.7 mph - N/A   Clear
7:52 PM 61.0 °F - 17.1 °F 18% 30.02 in 10.0 mi SSE 10.4 mph - N/A   Clear
8:52 PM 55.9 °F - 18.0 °F 23% 30.01 in 10.0 mi SSE 10.4 mph - N/A   Clear
9:52 PM 53.1 °F - 18.0 °F 25% 29.99 in 10.0 mi SSE 10.4 mph - N/A   Clear
10:52 PM 55.0 °F - 19.0 °F 24% 29.98 in 10.0 mi SSE 13.8 mph - N/A   Clear
11:52 PM 55.9 °F - 19.9 °F 25% 29.97 in 10.0 mi South 15.0 mph - N/A   Clear